Location: Wildlife_Club
(35.6000°N, 81.4330°W)
Time: 23:25:17
(UTC-04:00)

A-11 Canister half - Pass Details

Date: 01 July 2019
Orbit: 1514 x 1685 km, 47.2° (Epoch: 17 July)

Event Time Altitude Azimuth Distance (km) Brightness Sun altitude
Rises 12:01:14 0° 280° (W) 4,918 11.4 67.1°
Reaches altitude 10° 12:04:43 10° 287° (WNW) 3,915 11.0 67.7°
Maximum altitude 12:14:05 42° 356° (N) 2,183 10.3 69.4°
Drops below altitude 10° 12:23:10 10° 66° (ENE) 3,794 11.3 70.9°
Sets 12:26:29 0° 73° (ENE) 4,754 11.7 71.5°
